Theta_e
304 305 306 306 306 307 307 308 309 309 310 311 312 312 312 312 312 304 298 300 301 293 293 296 297 292 292 291 287 291 287 289 288 285 282 282 281 282 281 282 281 278 274 272 274 275 272 288 286 278 281 285 286 287
304 304 305 306 306 306 307 307 308 309 310 310 311 312 312 312 312 307 301 302 299 297 295 296 298 299 297 296 294 290 290 289 291 286 286 285 282 281 280 278 285 278 279 277 275 274 284 286 284 286 287 287 288 288
305 305 305 305 306 306 307 307 308 309 309 310 311 312 312 312 312 307 300 298 298 294 296 296 296 301 301 297 297 290 290 294 291 293 288 286 283 284 279 280 283 286 286 282 280 285 286 289 290 290 290 289 291 292
304 304 305 305 306 306 306 307 308 309 309 310 311 312 311 311 310 308 303 300 297 294 290 293 301 299 303 298 296 295 293 293 292 290 287 285 283 287 285 285 282 283 284 282 283 286 289 290 290 292 293 294 293 293
303 304 304 305 306 306 306 307 308 308 309 310 311 312 311 310 308 302 299 300 299 297 291 292 297 301 301 300 299 296 293 290 288 287 287 284 287 284 283 282 279 284 283 279 278 287 285 287 291 293 292 293 293 292
303 303 304 305 305 306 306 307 307 308 309 310 311 311 311 310 307 299 294 296 303 298 293 289 295 296 299 299 298 296 294 289 287 287 284 286 289 284 279 275 286 288 288 287 286 290 289 292 294 295 293 293 294 293
303 303 304 305 305 306 306 307 308 308 309 310 310 310 309 308 298 294 293 299 304 299 294 288 288 296 298 295 294 295 293 290 289 286 285 285 285 284 276 274 287 291 291 291 292 293 290 293 291 295 294 296 297 294
302 303 304 304 305 305 306 307 308 308 308 309 310 309 308 306 303 299 300 305 303 297 294 288 288 292 297 291 290 292 290 290 289 286 286 284 285 280 276 285 289 292 292 292 293 294 295 294 294 294 295 294 293 292
302 303 303 304 304 305 305 306 307 308 308 308 309 309 302 299 297 297 310 309 301 298 290 288 282 283 295 290 290 291 289 286 288 285 285 284 285 278 284 287 289 293 292 293 297 298 298 295 294 294 294 292 291 291
302 303 303 304 304 305 305 306 307 307 307 307 303 298 294 297 309 308 300 297 296 294 293 289 289 284 292 290 289 288 288 282 279 284 287 284 286 293 293 291 292 294 296 295 295 293 296 293 295 295 293 292 293 292
302 303 303 304 305 305 306 306 306 306 305 298 295 294 298 305 298 296 293 291 291 288 290 290 289 288 293 289 288 293 287 287 280 284 284 283 278 288 292 293 295 295 296 296 296 297 298 297 299 298 297 296 295 294
302 303 303 304 305 306 306 306 306 299 297 298 298 300 298 295 292 290 287 289 287 286 290 289 290 291 291 293 290 292 287 290 284 287 281 273 283 290 294 295 296 296 297 297 298 298 299 300 301 301 300 300 299 297
302 303 304 304 305 306 306 306 306 305 303 301 298 294 292 291 285 286 283 284 283 288 289 290 289 289 291 291 289 289 288 285 289 281 273 278 286 290 293 295 296 297 298 298 299 299 300 301 301 303 302 300 300 299
302 303 304 304 305 305 305 305 306 304 303 299 294 284 287 285 287 286 286 286 290 290 290 289 288 288 288 289 288 285 287 285 278 273 276 285 289 292 295 297 298 297 298 298 299 299 298 299 298 299 300 299 299 298
303 303 304 304 304 304 305 305 306 303 302 296 293 284 288 291 291 291 291 290 292 292 290 289 289 289 289 288 290 287 284 278 273 275 282 287 290 292 295 296 296 296 294 297 299 298 298 298 298 299 299 299 298 299
303 303 301 304 303 304 305 304 305 306 302 297 293 290 290 289 289 290 289 290 292 291 290 289 286 286 286 285 285 283 279 273 279 285 289 290 291 292 293 295 295 296 295 294 294 296 296 296 296 296 297 298 299 298
302 297 304 303 303 304 304 302 303 302 297 294 291 292 291 290 289 289 290 291 292 291 288 287 285 286 287 283 283 281 279 285 288 289 290 290 291 291 292 293 294 296 295 294 294 295 295 296 294 293 293 295 297 298
293 296 301 303 303 300 300 303 301 300 293 292 291 291 292 292 291 292 292 293 292 291 290 288 289 285 281 280 276 282 287 289 291 290 291 291 292 291 293 293 294 294 294 294 294 294 294 294 293 293 293 294 294 296
296 298 302 303 301 297 300 300 300 294 294 293 292 292 293 293 294 295 295 295 294 294 293 289 286 281 281 284 284 289 290 291 291 291 292 293 293 292 293 294 294 293 293 293 292 292 293 294 293 294 292 293 293 295
302 302 303 304 302 298 297 296 298 295 292 292 292 292 293 293 295 295 295 294 292 292 290 288 285 287 288 290 292 292 292 292 293 292 292 293 293 294 293 293 293 293 293 292 292 291 293 293 294 294 293 293 294 294
300 303 303 301 301 299 297 294 292 294 292 291 292 292 292 294 294 293 293 293 291 289 288 290 291 293 296 295 294 293 293 293 291 293 292 292 292 293 293 293 294 295 294 293 294 295 294 293 292 293 294 294 295 295
297 303 299 302 298 296 294 294 292 291 291 291 292 292 291 291 291 293 294 291 289 291 291 292 295 295 295 295 295 295 296 296 295 295 295 293 293 295 298 298 297 296 294 295 294 292 291 291 291 293 294 294 293 293
301 300 298 300 294 286 287 292 290 291 290 289 293 291 291 292 294 296 291 292 293 294 294 294 295 296 294 295 296 296 297 296 296 296 300 301 301 301 300 300 297 295 293 289 289 290 290 289 291 293 293 292 292 292
301 297 293 292 289 285 293 290 292 291 290 289 287 286 288 290 295 292 290 291 294 295 294 295 295 294 294 292 291 292 294 295 296 298 298 298 297 297 296 296 292 290 289 289 291 290 290 291 290 291 292 292 292 292
288 287 286 279 289 289 289 290 291 289 288 289 288 288 289 294 291 289 290 291 293 295 295 295 294 293 292 292 292 293 295 295 295 294 296 297 295 288 287 288 288 289 290 291 290 290 291 291 292 292 291 291 291 291
281 290 286 289 290 287 288 287 288 289 289 288 289 290 291 289 289 289 291 293 294 295 296 296 295 294 293 293 293 293 295 296 295 294 295 296 295 289 289 289 288 289 290 290 291 291 291 292 292 293 292 291 287 290
281 287 289 290 290 291 289 290 290 288 288 288 290 289 288 285 286 291 294 296 295 297 297 298 297 296 295 294 294 296 296 296 297 297 297 296 296 295 291 291 290 291 291 291 292 292 293 292 293 293 292 292 292 291
289 289 286 287 289 290 289 290 290 289 290 292 291 288 287 287 287 292 294 298 299 299 298 297 297 298 296 295 297 297 298 299 298 299 298 296 294 293 295 297 295 287 293 294 294 294 294 293 293 293 293 293 293 292
287 288 290 287 289 289 290 290 291 293 294 292 290 289 290 294 295 295 296 297 298 298 297 297 296 296 297 298 298 298 297 296 296 294 294 294 293 294 295 294 294 294 293 293 287 290 295 294 294 294 294 293 293 292
287 289 286 288 288 286 290 292 292 295 295 294 295 294 293 295 297 298 298 297 296 296 299 298 297 296 296 296 296 297 298 298 297 296 294 294 295 296 295 295 295 295 294 293 293 293 287 291 290 293 292 292 291 290
291 289 288 288 288 290 292 295 295 295 294 293 293 293 294 294 296 298 299 299 299 298 298 298 297 298 298 297 296 296 296 299 299 300 299 295 294 294 295 295 296 296 295 295 295 294 293 293 293 293 293 292 291 289
290 290 289 289 290 293 295 293 292 291 291 291 291 293 292 292 291 294 299 301 300 299 296 299 299 299 301 301 299 298 291 298 299 300 297 296 295 296 296 296 296 296 295 295 294 294 294 293 293 294 294 294 293 292
291 290 291 290 290 291 292 292 291 290 290 290 290 291 291 291 291 297 304 305 303 301 300 301 301 301 301 301 301 299 295 299 297 290 289 289 290 292 294 294 295 295 295 295 296 296 295 295 295 294 294 294 294 294
Wind_Speed
13 14 15 16 17 18 19 19 19 19 19 20 22 23 22 19 19 8 3 8 6 5 3 5 4 3 3 2 1 4 4 4 4 5 2 2 3 1 4 2 2 3 4 2 3 4 0 1 3 6 5 1 5 4
13 14 15 15 17 18 18 18 18 18 18 18 19 21 20 17 15 8 6 3 2 6 3 2 2 3 3 2 4 1 4 2 3 4 1 3 3 3 1 1 4 4 3 5 4 6 4 2 4 2 4 5 4 3
13 14 14 15 16 17 18 18 17 17 17 16 18 18 17 16 12 7 3 3 4 5 5 7 6 7 6 3 2 3 2 3 2 2 4 3 5 2 2 1 3 3 2 5 4 0 3 4 3 5 4 3 2 3
12 13 14 15 16 17 18 17 17 17 16 16 16 15 15 14 12 8 4 3 5 4 4 6 4 5 8 6 4 1 5 5 5 3 4 4 4 3 2 2 4 3 3 4 3 3 3 0 2 3 3 3 3 4
12 13 14 15 16 17 18 18 17 17 16 15 14 14 14 11 3 6 3 2 1 6 4 3 6 5 6 8 11 9 6 5 4 5 5 3 2 3 1 3 3 0 5 4 5 5 5 4 3 4 4 5 6 5
12 13 14 15 16 17 18 18 17 17 16 16 15 13 12 10 1 4 5 3 4 3 5 2 3 6 7 8 10 8 5 4 4 4 2 2 1 3 4 2 3 1 2 5 5 5 4 2 4 4 5 6 6 7
12 13 14 15 16 17 18 18 18 17 16 15 12 10 10 8 3 5 5 4 3 2 5 4 5 6 5 5 4 4 5 3 4 2 4 2 4 4 4 2 4 3 1 4 5 5 1 2 3 4 5 5 6 5
12 13 15 15 16 17 18 19 19 19 18 15 12 7 5 5 6 4 3 5 2 5 5 4 5 5 6 4 5 4 4 4 6 3 2 3 3 3 3 2 1 1 3 4 2 3 1 1 1 2 3 2 5 6
12 14 15 16 17 18 18 19 20 20 19 14 10 2 3 5 4 3 8 3 2 5 4 3 2 4 4 2 2 4 3 4 2 3 2 3 1 2 5 4 2 2 3 2 4 4 4 5 6 6 5 5 5 6
13 14 16 16 17 18 18 19 21 20 17 9 7 5 4 3 8 3 6 5 6 5 5 2 1 3 2 3 3 3 3 2 3 3 1 5 2 2 3 5 4 4 4 1 2 3 3 3 3 3 7 6 7 6
13 15 16 16 17 17 17 17 20 20 7 6 4 1 4 10 4 5 4 5 4 5 3 2 2 2 2 2 1 1 1 1 3 4 3 2 3 3 3 3 5 5 4 5 5 5 5 6 5 5 5 6 6 6
14 15 15 16 16 16 16 15 15 5 1 2 2 2 3 6 5 6 3 4 4 1 3 1 3 2 3 2 3 2 1 2 3 0 4 3 5 3 3 3 1 4 5 5 5 7 7 6 5 4 4 4 2 4
16 16 16 16 15 15 17 14 10 6 1 1 2 4 5 4 10 4 4 4 4 2 3 4 5 1 3 4 3 2 2 0 2 4 2 5 4 4 4 2 3 1 2 3 3 2 4 4 4 3 2 1 2 3
16 16 16 15 13 16 16 16 9 1 2 3 3 6 3 4 1 3 4 4 5 3 3 1 3 1 0 3 1 2 1 2 3 3 4 3 3 2 2 1 3 2 1 1 3 4 4 3 3 4 3 3 3 5
17 18 17 9 13 17 17 14 1 1 2 2 3 1 1 2 3 3 3 2 3 1 1 2 1 2 2 2 1 1 1 2 4 5 4 4 3 0 1 1 2 2 3 1 1 2 4 4 3 5 6 5 5 6
18 16 3 9 17 19 17 4 1 1 2 2 3 2 0 2 4 2 1 3 1 1 1 2 2 2 2 1 2 1 2 4 5 4 3 2 3 2 2 2 2 3 2 2 3 2 3 4 5 6 6 5 5 5
14 3 6 15 18 19 7 1 2 3 1 2 1 0 2 1 4 3 3 3 0 2 0 2 3 1 0 1 1 4 5 3 3 3 2 4 3 3 3 2 3 3 2 4 3 4 3 4 5 5 6 6 6 6
3 6 16 15 12 6 3 3 2 1 1 1 1 3 2 2 2 3 3 1 1 1 3 2 3 1 2 2 4 4 4 3 3 3 3 3 4 4 3 3 3 2 4 6 5 5 2 4 4 2 4 5 5 4
8 12 21 18 4 2 3 3 3 0 2 2 2 1 1 2 2 2 1 2 1 1 2 2 2 3 4 4 4 3 3 3 2 3 3 4 5 4 2 2 4 4 5 5 5 3 2 2 3 3 3 2 2 3
15 11 9 6 4 2 3 3 2 1 2 3 0 1 2 2 1 0 1 3 2 1 1 1 3 3 3 3 3 3 3 2 2 2 4 3 2 3 3 3 3 3 3 2 1 3 1 2 2 2 1 2 1 2
8 3 2 1 1 2 2 1 2 3 2 1 1 2 1 1 1 1 1 1 3 1 2 2 3 3 3 4 3 3 4 2 4 4 2 3 2 2 0 1 1 2 1 1 1 4 4 3 3 3 1 1 0 1
4 5 2 2 1 2 2 2 3 1 1 2 1 1 1 1 2 3 2 2 2 4 4 3 2 2 3 3 2 1 3 1 3 1 3 3 2 1 2 2 2 2 2 2 2 3 4 3 3 2 1 3 2 2
6 1 2 2 1 2 6 1 1 2 1 2 1 1 2 2 2 1 1 2 4 3 3 3 3 4 4 3 3 4 2 2 2 4 1 3 1 4 3 2 2 1 3 3 2 3 3 4 2 1 1 1 0 1
1 1 1 2 3 4 2 2 2 1 1 1 2 3 2 2 2 1 3 3 3 1 3 4 3 1 1 1 1 2 3 1 3 3 2 1 3 4 2 2 2 1 2 1 1 1 1 2 2 2 1 1 1 2
2 5 4 5 2 1 3 3 2 1 4 3 2 3 2 2 2 3 3 4 2 3 3 3 3 2 2 3 3 3 3 3 2 2 2 2 1 1 1 1 1 3 2 2 1 1 1 2 3 2 1 1 2 3
2 4 6 4 2 4 4 2 3 4 3 3 5 2 2 2 2 4 4 4 4 4 4 5 5 3 4 5 4 3 4 4 4 3 4 5 5 5 4 3 1 4 4 4 3 3 3 3 3 3 2 2 3 4
4 5 4 3 2 1 3 2 1 2 3 4 3 2 3 3 5 4 3 3 4 5 5 5 5 6 5 4 4 4 3 4 5 4 2 3 4 5 5 5 5 5 4 5 5 5 5 4 4 3 3 2 3 4
6 3 4 2 2 3 3 2 3 5 4 2 2 3 4 6 6 5 6 4 5 2 3 3 5 4 4 5 4 3 3 4 5 4 3 2 1 3 5 4 4 5 4 4 5 4 4 4 4 5 4 4 3 3
4 3 2 4 4 4 5 5 5 4 4 5 5 4 5 4 3 3 3 3 1 3 3 4 4 4 3 3 3 3 2 3 5 5 6 4 1 3 4 4 4 3 3 3 5 5 5 4 5 4 5 4 3 3
5 4 3 3 2 3 5 5 4 3 2 3 3 1 2 3 4 2 2 2 2 5 4 4 2 4 5 5 3 3 3 4 4 5 4 4 5 4 3 3 3 2 2 1 2 1 2 2 2 2 3 3 3 4
1 2 2 3 4 5 5 3 2 1 1 2 1 3 4 4 4 2 3 3 3 3 3 2 2 3 4 4 4 3 4 4 6 6 5 3 2 3 4 2 1 2 1 1 2 2 3 3 3 5 5 6 7 7
3 4 3 2 4 5 3 2 2 1 2 1 3 2 3 1 4 3 3 2 2 4 5 4 3 4 6 4 4 4 5 2 3 4 6 4 4 3 3 2 2 2 2 3 3 3 4 6 5 3 2 6 7 5
1 1 3 2 3 3 3 2 2 3 2 2 3 2 2 3 3 4 3 3 1 2 4 5 4 3 4 5 4 3 4 4 5 6 6 5 6 5 3 3 3 3 4 3 3 3 6 8 8 11 7 3 2 3
Wind_Direction
15 8 3 358 2 0 359 356 353 355 357 4 5 6 9 12 16 41 349 16 78 100 337 19 12 26 358 60 111 283 31 351 33 75 125 206 94 113 87 31 35 84 90 90 77 90 244 35 74 148 201 106 154 186
12 4 360 358 359 359 357 355 351 354 355 1 2 2 2 15 14 44 30 359 23 77 202 301 301 91 274 240 158 13 168 191 185 97 130 112 60 49 119 85 18 44 149 138 133 195 238 311 145 157 156 149 186 184
9 2 356 357 357 353 357 351 350 353 351 355 358 355 357 3 26 68 97 338 48 52 8 29 345 327 352 353 185 122 301 162 90 158 150 138 83 115 70 21 92 59 125 89 84 258 118 98 93 148 178 150 188 237
7 358 355 356 352 350 352 348 349 347 346 349 346 343 357 0 22 57 69 308 78 104 84 305 336 360 314 343 58 130 129 60 103 81 78 79 99 30 85 140 98 204 46 124 63 80 85 35 213 180 205 208 254 291
3 353 354 353 349 348 346 345 342 341 338 334 336 338 346 354 36 79 87 15 144 120 166 269 314 330 344 22 33 37 59 72 40 46 46 57 72 72 357 82 13 358 160 134 200 178 153 208 206 189 208 227 231 215
355 352 351 349 348 343 342 339 336 334 329 328 333 332 334 343 57 71 18 339 20 84 93 24 283 337 342 9 28 22 24 59 74 89 98 59 49 105 78 80 274 299 180 167 168 173 179 171 191 193 213 233 232 206
350 351 348 347 345 340 336 334 334 330 329 327 325 331 343 347 66 95 167 248 30 73 78 14 347 339 341 21 12 10 20 43 78 93 51 75 12 53 91 122 266 322 85 110 122 130 83 189 223 213 216 240 212 208
350 347 345 343 342 335 333 333 332 333 332 323 324 341 9 56 73 28 326 13 79 88 68 60 301 4 10 2 352 5 14 29 17 113 38 50 358 44 64 200 304 123 100 77 178 245 241 328 216 257 209 151 179 206
345 343 341 341 337 333 332 331 333 333 327 321 313 0 62 33 27 268 317 93 46 106 96 75 85 282 357 351 312 353 40 54 298 73 32 74 306 44 226 187 204 121 121 131 321 279 260 252 272 272 226 211 215 227
340 340 339 337 334 331 328 330 331 332 323 327 31 39 352 270 311 1 5 27 18 350 30 76 127 292 39 2 353 19 19 48 52 298 42 40 288 295 236 222 237 212 198 188 320 330 13 321 270 288 226 224 218 225
338 338 334 332 328 326 323 329 332 333 16 35 23 315 264 313 45 33 36 52 335 24 357 300 189 289 331 40 291 45 183 351 63 284 98 358 325 276 302 260 216 228 234 241 241 261 256 246 273 284 280 242 238 234
335 331 327 327 324 318 318 332 338 22 99 220 252 285 322 28 37 67 6 349 43 276 303 330 277 212 306 49 68 354 52 350 18 118 70 348 257 284 334 12 203 217 230 250 241 254 263 255 256 246 228 272 251 247
328 322 324 323 316 315 320 326 328 278 21 82 41 34 44 320 39 55 3 321 340 283 284 328 320 74 1 40 51 16 29 337 116 41 221 230 275 284 273 280 301 353 228 278 327 302 250 263 266 219 274 328 321 321
321 319 320 315 307 319 320 325 331 144 73 65 53 12 90 344 27 197 195 215 251 235 295 264 285 351 279 56 148 48 289 74 45 24 252 253 244 286 336 207 136 152 329 339 20 8 11 24 358 331 289 262 278 281
318 318 314 297 322 324 325 327 60 109 93 80 86 53 358 249 250 248 226 298 255 247 329 335 3 69 340 32 20 136 112 360 179 227 238 241 228 222 256 232 181 258 301 278 283 311 309 324 307 292 283 274 239 255
324 317 264 328 331 327 323 324 319 91 62 74 82 71 41 44 303 323 282 273 248 10 84 39 19 29 20 18 358 55 97 219 249 225 248 225 188 215 242 250 282 259 286 304 303 283 295 306 310 299 299 286 282 273
326 250 315 335 330 318 315 27 22 35 73 69 299 97 147 175 220 243 196 249 258 64 1 96 352 276 46 68 322 165 196 233 238 264 230 207 203 227 237 298 303 313 311 310 292 293 297 326 318 318 306 305 315 305
256 291 315 325 337 326 341 38 53 48 56 235 126 256 215 195 215 263 254 267 76 166 132 222 149 48 209 204 277 245 241 256 247 249 231 237 230 240 235 263 353 330 298 301 294 287 245 311 322 316 309 312 322 345
267 291 300 305 303 24 9 333 65 325 244 218 243 239 207 242 226 250 263 304 234 196 127 55 126 190 230 217 229 258 247 234 239 261 249 242 227 237 282 315 304 306 321 314 321 301 267 217 233 296 306 350 326 349
300 285 285 303 164 59 331 297 68 150 256 243 183 243 206 212 210 222 334 21 45 51 34 215 213 219 197 247 237 254 238 239 190 294 280 265 227 222 215 234 254 282 291 321 39 57 48 304 272 346 276 269 221 288
332 312 352 126 43 90 191 279 303 210 255 222 246 148 262 351 321 326 295 46 63 112 297 237 244 252 245 253 248 250 282 231 212 186 231 298 330 205 140 41 41 19 166 205 42 299 10 317 288 285 245 216 184 1
269 333 336 333 357 346 282 231 186 248 137 242 337 134 222 243 243 237 173 59 211 227 193 189 228 225 280 280 283 276 273 279 277 215 118 84 358 133 85 65 13 297 292 300 296 295 315 313 286 254 18 288 323 347
325 34 322 344 326 40 263 73 177 212 202 267 33 305 258 231 220 103 5 235 252 216 185 186 220 230 227 257 293 289 266 239 263 260 187 104 73 272 160 236 226 242 294 290 305 337 303 295 308 216 242 271 348 69
338 310 267 255 161 255 328 264 222 230 215 210 200 252 244 222 153 101 248 250 245 183 187 194 177 266 306 288 249 266 263 211 228 296 18 52 253 263 304 279 227 150 229 251 43 335 347 10 20 48 33 327 27 117
28 279 113 285 237 251 249 254 218 140 238 211 229 273 223 142 189 214 230 257 240 226 202 167 153 179 205 273 292 279 230 174 169 225 281 192 170 41 315 254 286 241 197 129 191 219 319 344 0 5 357 133 161 145
239 234 170 214 239 184 225 252 214 214 201 222 231 231 135 153 195 247 229 220 213 205 199 191 181 180 241 214 227 238 238 187 160 208 256 196 189 183 196 185 258 288 201 200 183 204 236 267 278 258 251 217 189 171
259 264 234 236 215 239 288 253 228 169 225 224 227 186 178 226 233 250 272 224 201 213 202 182 169 188 210 222 222 235 225 175 195 200 222 207 213 202 170 180 215 239 205 192 199 207 211 225 237 233 241 251 232 215
230 244 204 246 244 208 236 232 217 216 231 209 102 199 204 207 232 231 216 227 215 196 212 197 192 189 193 222 241 235 224 214 232 235 262 274 239 190 191 222 243 261 243 212 217 214 213 212 211 217 228 245 244 199
248 245 184 264 235 233 219 213 224 227 190 161 179 225 240 224 224 221 246 218 163 165 205 243 252 171 215 225 237 235 202 180 169 198 221 234 268 264 208 213 220 229 235 247 236 235 237 219 216 217 231 213 196 154
255 171 200 247 217 248 250 188 239 259 218 192 179 336 323 288 256 219 190 159 177 221 215 222 186 177 212 176 225 267 229 206 209 197 213 235 232 247 208 185 205 255 251 250 289 275 235 232 173 192 185 207 212 173
225 149 241 223 240 247 237 255 253 244 241 230 176 171 229 262 306 253 218 218 210 159 148 188 152 187 186 181 174 196 268 252 205 213 230 251 252 176 167 173 223 208 208 243 269 279 280 272 251 246 241 234 227 218
181 209 193 258 273 280 349 350 327 310 296 322 274 225 313 334 257 310 334 67 141 158 201 176 177 219 198 181 188 193 186 287 183 180 169 162 176 175 149 131 90 76 77 74 60 28 11 338 307 291 266 260 239 219
230 202 221 276 312 315 301 1 281 286 288 263 268 225 222 202 234 242 261 211 114 344 273 236 228 242 230 209 188 178 197 228 224 178 165 149 150 139 119 96 85 76 71 62 33 14 40 17 353 321 313 303 247 142